Location: Hains Lake
(37.8540°N, 99.8578°W)
Time: 10:25:28
(UTC+00:00)

Tiros 1 despin weight - Pass Details

Date: 27 April 2021
Orbit: 593 x 642 km, 48.2° (Epoch: 07 May)

Event Time Altitude Azimuth Distance (km) Brightness Sun altitude
Rises 06:59:43 0° 188° (S) 2,926 - -37.9°
Reaches altitude 10° 07:02:55 10° 165° (SSE) 2,020 - -37.9°
Maximum altitude 07:05:34 15° 130° (SE) 1,706 - -37.8°
Drops below altitude 10° 07:08:12 10° 96° (E) 2,018 - -37.7°
Exits shadow 07:11:13 - 74° (ENE) 2,867 ? -37.6°
Sets 07:11:24 0° 73° (ENE) 2,923 ? -37.6°
